Weather in Layskiy Dok

Russia / Arkhangel'skaya Oblast'     64°32′10″N   40°15′00″E
temp.,
°C
wind,
m/s
gust,
m/s
humid.,
%
clouds,
%
prec.,
mm/h
press.,
hPa
HPBL,
m
25 february, thu
thu2500:00−15sse3993100 0.0 1016400
03:00−14sse41092100 0.0 1013551
06:00−14sse3992100 0.0 1011514
09:00−15se4992100 0.1 1011451
12:00−14se3791100 0.0 1010486
15:00−13sse4790100 0.1 1010508
18:00−14sse3993100 0.0 1009394
21:00−14sse41092100 0.0 1007403
26 february, fri
fri2600:00−13sse4994100 0.5 1005418
03:00−13sse41094100 0.9 1004404
06:00−13sse4994100 1.0 1001393
09:00−13se4894100 1.3 1000336
12:00−12se4794100 0.3 1000337
15:00−11se4794100 0.7 1000325
18:00−12se3795100 0.6 1000328
21:00−13se379599 0.8 1002294
27 february, sat
sat2700:00−13se259686 0.2 1003238
03:00−15se249679 0.3 1006114
06:00−16sse229679 0.1 100762
09:00−15sse239686 0.3 1008129
12:00−11s129498 0.4 1009189
15:00−9wnw019499 0.7 1010152
18:00−10nnw1297100 0.5 101124
21:00−9nw249895 0.6 101288
28 february, sun
sun2800:00−9nw369763 0.0 1013121
03:00−11wnw239765 0.0 101462
06:00−12wnw239876 0.0 101459
09:00−11w229781 0.1 101560
12:00−6sw259360 0.0 1015223
15:00−4sw369380 0.0 1014347
18:00−5sw3109198 0.0 1013433
21:00−3sw499499 0.3 1011414
1 march, mon
mon100:00−1wsw31094100 0.0 1009435
03:000wsw51297100 0.3 1007526
06:000wsw51392100 0.0 1003594
09:00+1w51494100 0.2 999945
12:00+2w61596100 0.3 998846
15:00+2w6138986 0.3 998832
18:00+1wnw6138751 0.1 997981
21:00−2wnw4148752 0.1 997556